Wind_Speed
6 6 5 5 4 4 4 4 4 5 5 6 6 7 7 7 7 7 7 6 6 7 9 12 14 15 15 15 14 13 11 9 9 12 15 11 10 12 11 13 16 14 15 14 12 13 13 13 12 12 11 10 9 9 9 9 7 6 8 6 5 4 4 6 5 5 5 8 8 9 11 11 11 9 7 7 5 4 4 2 1 2 2 2 3 2 2 4
6 6 6 6 6 5 5 5 5 4 5 5 5 5 6 7 7 7 7 7 7 7 7 8 10 13 15 16 16 15 13 11 11 13 11 7 11 15 14 16 17 16 15 14 15 16 15 14 13 14 13 11 11 11 11 11 11 10 10 9 9 7 6 6 6 9 9 9 9 9 10 10 11 10 9 7 5 5 1 2 2 2 3 3 3 3 3 4
7 7 7 6 6 7 6 6 6 6 5 5 5 5 5 5 6 6 6 7 7 7 7 7 7 9 12 15 17 17 16 14 13 14 10 8 13 16 16 17 17 18 17 17 17 18 18 16 14 14 14 12 12 14 14 13 14 11 9 11 11 13 13 11 10 13 10 9 9 8 9 11 12 11 9 7 6 4 2 3 2 1 3 3 3 3 3 4
8 8 8 7 7 7 7 7 7 7 7 7 6 6 5 5 5 6 6 6 6 7 7 7 7 6 8 11 15 17 17 17 16 16 13 11 15 17 18 17 17 18 17 19 18 18 19 16 15 15 14 13 12 14 15 15 16 12 8 11 12 15 17 17 18 19 12 10 10 8 12 14 14 12 10 9 6 1 2 0 2 1 2 1 2 2 2 3
9 9 9 8 8 8 8 8 8 8 8 8 8 8 7 7 6 6 6 6 6 6 6 7 7 7 7 8 11 15 17 20 19 18 15 13 16 18 19 18 17 17 17 18 18 19 19 17 17 16 14 13 12 12 15 15 15 14 9 7 10 14 16 18 23 24 14 11 10 8 12 14 14 13 12 10 3 2 2 2 2 1 2 2 2 2 2 3
10 10 9 9 9 9 9 9 9 8 8 9 9 9 9 9 9 8 7 7 7 6 6 6 6 6 7 7 8 11 17 21 20 18 17 15 16 19 19 18 17 15 16 16 18 20 18 18 18 16 15 14 12 13 14 14 12 13 12 8 8 13 14 17 21 23 18 15 10 8 13 15 15 14 12 9 2 0 4 3 1 1 3 3 3 2 2 2
11 11 11 10 10 10 10 10 10 9 9 9 9 10 10 10 9 9 9 8 8 7 6 6 5 5 6 7 8 9 13 17 19 19 19 18 17 18 20 19 18 16 15 15 18 19 19 19 17 18 17 15 14 13 15 14 11 13 14 7 11 13 11 14 16 21 23 16 9 10 16 18 17 14 12 9 4 4 4 4 2 2 3 3 3 3 2 1
13 13 12 12 12 11 11 11 11 11 11 10 10 10 10 10 10 10 10 9 9 8 7 6 5 5 5 6 8 9 9 11 16 20 21 20 19 19 20 20 20 17 15 16 17 19 21 19 18 20 19 16 15 15 16 14 10 13 13 9 12 10 6 10 12 19 24 15 11 15 17 18 18 15 13 10 7 7 5 5 4 2 3 3 3 3 3 2
14 14 13 13 12 13 13 13 13 13 12 12 12 12 11 11 10 10 10 9 9 9 9 7 6 5 5 6 7 6 8 10 14 19 22 21 21 20 20 21 21 20 18 17 18 19 19 17 19 20 19 19 19 19 17 12 10 12 11 11 11 9 2 6 9 17 23 17 14 16 16 18 18 15 13 10 8 8 7 6 5 3 2 3 2 2 3 2
15 14 14 13 13 13 13 14 14 14 14 13 13 13 13 12 11 11 10 10 9 10 10 9 7 7 6 6 6 5 6 9 11 16 21 22 22 21 21 21 21 21 20 19 18 16 15 17 20 21 23 25 23 21 17 13 13 12 10 11 12 13 11 10 8 13 22 19 16 16 16 18 17 13 11 10 8 8 9 8 6 4 2 3 2 2 2 2
16 16 15 15 14 14 14 14 14 14 14 14 14 14 14 13 13 12 11 10 9 10 10 9 9 8 8 8 7 5 5 7 10 13 17 20 23 23 21 20 22 23 21 21 19 16 16 19 23 25 27 27 24 22 18 15 16 15 13 10 10 12 12 12 11 13 21 20 16 16 16 17 16 12 10 8 5 7 9 8 7 5 3 3 2 1 1 2
17 17 17 16 16 15 15 15 15 15 15 15 15 14 14 14 14 13 13 12 11 10 10 9 9 9 10 10 7 6 5 5 9 11 14 16 19 22 23 22 22 23 23 22 21 19 19 21 25 26 26 25 25 23 20 19 18 17 15 11 12 13 13 14 14 18 22 20 17 16 15 19 19 12 8 7 5 6 8 8 7 6 4 4 3 1 0 1
18 18 18 17 17 17 16 16 16 16 16 16 16 15 16 15 14 14 14 13 12 12 11 10 10 9 11 13 8 7 6 4 7 10 12 13 14 18 23 24 24 23 24 23 22 22 22 23 25 25 25 26 26 23 21 21 19 18 17 14 14 16 16 14 14 19 23 21 19 15 15 21 21 13 7 5 5 7 7 7 7 6 5 4 3 1 1 1
18 18 18 18 18 17 17 17 17 17 17 17 17 17 17 17 15 15 15 14 13 13 13 11 11 9 12 14 9 8 8 5 8 9 10 12 12 14 19 24 26 25 24 24 24 23 23 24 24 25 26 26 26 24 23 22 20 20 19 17 16 18 18 16 16 19 21 21 20 16 16 22 23 16 9 4 4 6 7 7 6 6 6 5 4 2 1 1
17 17 17 18 18 18 17 17 18 18 18 18 18 18 19 18 16 16 17 16 16 15 14 12 11 9 13 16 9 8 10 8 9 8 9 12 12 12 15 20 24 27 27 26 26 25 25 25 23 24 24 24 27 27 25 24 23 22 20 19 17 17 20 19 18 17 17 19 19 18 19 23 23 17 10 5 4 4 5 7 6 6 6 6 5 3 1 2
18 18 18 18 18 18 18 18 18 19 20 20 19 19 20 18 17 17 18 18 17 17 16 13 12 11 14 17 11 9 11 11 11 9 10 11 12 12 13 16 20 25 28 28 28 26 26 25 23 23 23 25 27 27 27 27 27 24 21 20 16 15 21 19 14 15 15 17 19 19 19 21 21 16 11 7 4 3 3 5 7 5 6 6 6 4 2 3
20 20 20 20 20 20 19 19 19 20 21 21 20 21 21 18 18 19 20 20 19 18 18 16 14 13 15 17 14 13 13 13 14 12 11 11 12 12 12 14 17 21 26 29 30 29 28 26 24 23 24 24 25 26 29 29 28 25 21 19 15 15 21 18 13 15 16 15 18 19 18 20 20 17 13 8 5 4 3 5 7 5 5 7 6 5 4 3
23 23 23 22 22 22 22 21 20 21 23 23 21 22 22 20 19 21 21 20 20 20 20 17 15 14 16 17 16 17 16 14 15 15 13 12 12 12 12 13 16 18 22 27 29 30 30 28 26 25 24 24 24 27 27 23 23 23 21 18 17 17 19 21 19 17 16 15 18 19 19 22 22 19 16 11 8 6 5 6 7 6 5 6 6 6 5 5
25 26 26 26 25 24 24 23 23 23 24 25 23 22 22 21 21 21 21 21 22 22 21 18 16 14 16 18 18 19 17 16 16 17 15 12 12 13 13 13 14 16 18 21 26 29 31 30 29 26 23 22 23 24 21 18 21 23 22 19 19 19 19 23 20 15 14 16 19 20 22 25 24 21 19 16 13 10 7 7 7 7 6 6 6 6 6 6
28 28 29 29 29 28 27 26 26 26 25 26 26 24 23 22 23 23 21 22 23 24 23 20 17 15 17 19 20 19 18 18 18 18 17 15 15 14 14 14 13 14 15 16 20 25 29 32 30 25 22 21 21 21 19 20 24 25 26 25 22 22 22 22 16 12 14 16 18 21 24 26 25 23 23 20 15 11 8 7 7 7 7 6 6 6 7 7
32 31 31 32 32 32 31 30 29 29 28 28 28 27 26 24 24 24 22 22 23 24 24 22 19 15 16 21 20 18 19 19 19 19 19 19 18 16 15 15 14 13 14 16 19 22 25 27 26 24 24 22 21 22 21 24 26 26 27 28 25 23 23 21 16 13 14 16 19 22 24 25 25 24 24 21 15 10 7 7 7 8 8 8 6 6 8 8
34 33 33 34 35 35 35 34 33 32 31 30 29 30 30 29 28 26 24 22 23 25 24 23 21 16 18 23 20 17 18 17 19 20 20 21 20 18 17 17 15 15 16 18 18 19 19 18 20 24 26 25 24 24 23 24 28 29 28 29 27 23 22 22 21 16 15 19 22 23 24 25 25 22 20 20 16 12 9 7 7 8 9 9 8 7 8 8
35 35 35 35 36 37 38 37 36 36 35 33 33 32 32 32 31 29 27 22 21 26 26 24 24 18 17 22 22 19 16 16 18 20 21 22 22 22 21 19 17 18 18 17 16 16 14 12 16 23 27 28 27 26 26 27 29 30 31 31 29 25 25 25 22 18 17 21 22 22 23 24 27 24 19 19 19 18 15 11 9 8 8 9 9 8 7 7
38 37 36 36 37 38 40 39 39 38 37 36 35 35 36 36 34 32 31 27 21 23 27 27 25 20 18 24 25 20 15 16 17 19 21 22 23 24 23 21 21 20 18 17 17 17 13 11 16 22 26 28 29 28 29 29 28 28 30 30 26 24 27 26 22 20 20 22 23 24 25 25 28 27 22 20 20 20 18 13 10 8 8 10 10 9 7 7
40 40 38 37 37 38 41 41 41 41 40 39 37 38 39 39 38 35 34 33 25 23 29 31 28 23 23 27 26 23 21 17 16 20 22 22 24 24 23 23 22 20 19 19 20 19 15 14 18 21 24 27 30 31 31 28 27 28 29 27 24 24 26 26 26 24 21 20 23 27 28 28 29 28 24 22 20 20 20 16 13 10 10 10 9 9 8 7
41 42 41 39 38 38 40 42 42 42 42 41 40 40 41 40 41 39 37 38 31 26 30 35 34 30 28 29 28 29 27 18 20 25 23 22 23 23 23 24 21 20 20 22 24 20 16 16 19 21 22 25 29 31 31 29 29 29 26 24 24 27 28 27 27 25 20 17 19 25 28 28 31 30 25 24 21 20 21 19 15 11 10 10 10 10 9 9
43 43 43 41 39 37 39 42 42 43 43 43 41 42 44 42 42 41 40 42 37 31 33 36 38 36 33 33 33 33 27 21 26 28 22 21 22 22 23 22 20 20 22 25 25 18 17 20 20 20 21 24 26 29 31 32 31 27 22 25 26 29 30 29 28 27 23 20 21 28 30 29 32 31 27 27 24 21 21 20 17 13 10 10 11 11 10 11
43 44 44 43 42 39 40 41 43 44 43 43 42 43 44 44 44 42 42 45 42 35 35 37 38 38 35 35 34 32 28 26 30 27 23 24 24 23 23 20 20 21 24 28 23 17 19 21 18 19 22 23 22 24 28 33 32 25 22 27 28 29 32 31 30 27 23 25 30 32 33 31 31 30 28 30 29 24 20 18 16 15 13 12 12 11 11 12
45 45 45 46 46 45 43 42 44 46 45 43 43 43 43 43 44 44 45 47 43 38 38 38 38 37 35 35 34 32 30 28 30 29 28 28 26 25 24 21 23 24 27 28 24 22 22 20 19 22 23 21 19 21 25 31 31 25 25 29 29 31 34 37 37 32 28 33 36 33 32 32 31 30 30 33 31 23 16 15 16 18 17 16 14 12 12 13
50 48 48 48 49 49 48 45 44 45 47 46 45 45 44 44 43 44 47 48 43 40 40 38 37 37 36 34 33 32 31 30 30 33 33 32 30 29 27 26 27 28 28 28 25 24 23 22 24 25 22 19 20 21 24 28 29 27 29 31 32 35 37 41 42 38 36 41 39 35 32 32 32 32 33 34 28 19 16 17 19 20 19 17 16 14 14 14
54 53 52 52 52 51 51 50 46 45 46 47 48 47 47 46 45 46 47 44 40 41 43 40 39 40 38 37 36 35 35 34 34 35 36 35 33 33 31 31 30 29 29 28 23 22 23 26 26 24 22 22 22 24 25 27 29 30 33 33 34 37 40 45 46 44 46 48 42 37 34 33 36 35 33 31 25 21 21 20 20 20 20 18 17 17 16 16
56 56 56 56 56 54 54 54 52 49 47 47 48 49 49 49 49 48 46 42 40 44 45 43 43 42 42 42 41 40 40 38 38 38 37 36 35 34 33 32 30 29 29 26 22 21 25 26 24 25 26 25 24 24 25 27 29 31 35 37 38 39 44 48 49 48 51 49 43 38 35 37 39 35 33 31 27 25 23 21 20 20 20 19 19 19 17 16
56 57 56 57 59 59 57 56 56 55 52 50 50 50 51 51 50 48 46 44 44 47 48 47 46 46 46 46 45 44 43 42 41 41 40 39 38 36 35 34 33 33 31 28 26 26 27 27 27 29 28 26 26 25 25 26 27 30 34 39 41 41 45 49 48 49 50 48 44 39 38 42 42 36 33 31 27 25 24 20 19 19 21 21 21 20 19 18
56 57 56 57 59 61 60 58 58 58 57 55 54 54 55 54 51 48 47 46 48 49 50 50 48 48 50 50 49 48 46 45 45 45 44 44 43 40 38 37 36 36 33 32 32 31 31 30 29 28 26 24 26 25 24 24 26 28 30 37 42 42 44 46 45 46 48 48 45 41 43 46 43 37 31 28 26 24 23 20 17 20 23 22 21 22 21 21
58 58 58 58 59 61 61 60 59 59 59 58 57 58 59 57 54 51 50 49 50 51 52 52 52 52 52 51 51 50 49 48 46 46 47 47 46 43 41 39 38 38 36 36 35 33 33 31 26 26 26 25 27 25 24 26 28 28 29 35 40 40 42 43 43 44 45 47 48 46 47 47 42 37 32 28 26 23 21 21 21 23 23 21 21 22 22 22
61 60 60 61 62 61 62 63 61 60 59 59 59 60 59 58 56 55 54 53 53 53 52 53 54 55 53 52 53 52 52 50 46 46 48 49 49 47 45 42 40 39 38 37 35 34 35 30 23 26 30 29 29 27 26 29 29 29 30 32 32 32 38 42 43 43 44 48 49 48 49 46 42 39 35 30 27 24 23 22 22 24 22 19 18 20 22 23
65 63 63 63 64 63 63 64 64 63 62 61 62 60 59 58 57 57 57 56 56 55 54 54 55 56 56 55 55 55 55 53 50 48 49 50 51 49 47 45 43 41 40 38 37 36 37 33 26 27 31 30 29 28 29 31 30 31 32 28 25 28 36 42 44 44 46 50 50 48 49 47 43 41 38 34 31 27 23 20 19 21 20 17 15 16 19 21
69 67 65 64 64 65 65 65 65 65 65 65 64 62 61 60 59 59 59 59 59 58 58 57 56 56 57 57 58 58 58 58 55 52 50 50 52 50 47 46 45 43 40 38 39 38 38 38 33 31 31 30 29 31 34 35 34 33 30 27 27 31 34 39 44 46 48 50 50 47 47 48 46 42 39 36 34 28 20 16 17 19 19 17 13 12 14 17
72 70 67 65 64 65 66 66 66 67 67 67 65 63 63 62 61 62 62 63 63 62 61 61 59 59 59 59 60 60 61 61 60 58 55 54 53 50 48 47 47 44 40 39 41 40 39 40 38 34 32 31 33 37 39 39 37 34 31 31 32 33 34 36 39 42 45 48 48 46 47 48 45 42 39 37 34 28 20 18 20 18 16 15 11 10 12 15
75 72 69 67 65 66 67 67 67 67 68 68 66 66 65 65 65 65 65 66 66 65 65 65 64 62 62 62 61 61 62 63 62 61 61 58 55 52 49 48 49 46 42 39 40 40 41 43 41 35 34 36 40 42 41 39 38 36 35 36 35 35 36 36 38 40 42 45 46 46 48 47 43 40 39 37 35 28 23 22 22 18 14 14 13 13 14 15
78 73 70 69 68 66 65 65 66 67 68 67 67 68 68 68 68 68 68 69 69 69 69 68 68 66 65 64 63 62 62 64 64 63 62 61 57 55 50 47 47 47 44 43 43 43 43 45 43 39 39 41 42 41 39 39 38 36 35 35 35 35 35 37 39 40 42 44 43 44 46 44 41 38 37 37 34 29 25 23 21 18 17 17 16 15 16 16
78 73 69 70 69 66 64 64 65 67 67 67 67 69 70 70 70 71 71 72 72 72 72 72 71 70 68 66 64 63 63 65 66 65 64 62 59 57 51 42 38 40 45 48 46 42 41 43 44 43 42 42 40 39 39 39 37 37 36 34 34 36 37 38 40 40 41 42 40 40 43 42 39 38 37 36 33 29 27 24 22 21 20 19 18 17 20 18
75 70 67 68 68 66 63 61 62 65 67 67 68 70 72 72 73 73 74 75 76 76 76 75 75 74 73 69 67 67 66 65 68 68 66 64 61 60 55 47 38 34 38 46 46 39 38 44 47 45 42 40 40 40 41 41 39 39 40 37 36 37 37 36 37 36 38 41 40 40 41 38 34 35 38 37 32 29 27 26 25 24 22 21 19 18 21 20
66 62 60 62 64 63 60 57 59 64 66 67 69 72 73 74 76 76 77 78 79 80 80 79 78 78 78 75 72 71 70 69 68 68 68 66 64 61 58 56 52 45 41 42 41 39 41 46 49 48 46 45 45 45 46 46 45 44 43 40 38 37 36 36 36 36 38 41 42 43 42 34 29 32 38 37 32 29 28 26 24 25 23 22 20 19 21 21
57 52 48 52 56 55 51 52 56 60 64 67 70 73 75 76 78 80 82 83 82 83 83 82 82 82 82 82 78 75 75 75 72 71 71 70 68 65 61 60 60 57 52 44 36 35 40 46 50 52 53 53 51 51 50 48 47 47 45 42 39 37 36 37 39 40 42 41 41 45 44 35 29 31 35 36 34 32 32 30 27 26 25 22 20 21 22 23
48 43 36 37 43 45 43 44 49 54 59 64 68 71 74 77 79 81 83 85 85 84 84 85 85 83 83 85 83 78 79 81 79 76 74 72 70 68 66 64 61 59 59 53 46 41 41 45 50 54 55 54 50 48 47 46 46 46 45 43 40 38 36 38 41 42 42 40 40 43 42 36 32 31 31 31 34 35 34 33 31 29 26 23 23 22 22 23
38 34 28 25 28 31 33 35 38 44 50 56 61 65 68 72 76 78 78 80 81 81 81 83 84 83 83 84 84 82 82 83 83 80 77 74 72 70 68 66 63 59 57 55 54 52 50 52 55 54 52 51 48 43 42 45 45 44 44 43 40 37 36 39 44 43 41 40 40 40 39 37 34 31 28 25 30 37 35 32 33 32 28 27 28 25 21 21
30 27 23 19 18 20 23 27 30 33 37 42 48 53 58 63 67 70 72 74 76 76 75 77 77 79 83 85 84 84 83 83 85 85 81 76 73 71 69 67 64 61 58 55 55 56 58 61 60 55 52 51 48 44 42 44 45 44 44 44 41 37 36 38 41 39 38 40 38 35 37 39 34 27 24 21 23 35 37 32 30 33 32 31 31 29 25 22
26 22 20 18 15 14 17 21 25 27 29 33 35 39 45 51 55 60 63 66 69 69 69 70 70 74 82 85 83 83 83 83 86 86 83 79 75 70 68 68 66 63 60 58 57 58 61 64 62 56 51 50 49 47 46 46 46 46 46 44 41 38 37 36 36 35 35 37 37 35 37 40 35 27 22 18 17 28 37 35 32 32 31 29 29 29 26 26
23 20 18 16 14 13 15 18 22 24 26 29 32 33 36 40 43 47 50 55 58 59 61 64 64 68 77 81 81 80 81 82 85 86 84 82 78 71 69 70 67 64 62 60 59 61 62 62 61 55 50 49 49 48 47 48 49 48 47 45 42 39 38 37 34 33 34 34 34 36 39 41 39 31 25 23 22 26 34 36 34 33 31 31 32 30 26 26
21 19 17 15 14 14 15 16 19 21 23 27 31 32 33 35 37 40 41 44 48 50 52 58 61 62 67 72 76 77 79 82 85 87 86 85 82 76 72 72 70 66 65 63 61 63 63 60 58 54 49 50 50 48 48 49 50 50 49 46 44 42 40 37 33 32 34 34 34 36 38 39 38 35 32 31 31 31 33 33 33 33 33 35 35 30 27 28
20 19 18 15 13 14 16 16 18 19 21 25 27 27 30 34 36 38 39 38 39 42 44 50 55 59 60 61 65 69 74 80 84 87 88 87 85 80 74 73 73 71 68 67 66 65 63 60 57 54 51 49 47 44 44 45 50 57 56 49 44 44 40 34 32 32 32 34 36 38 38 34 34 37 37 35 35 36 35 33 32 31 32 33 31 30 31 32
Wind_Direction
290 287 287 292 300 306 314 318 318 317 310 307 301 294 288 282 278 274 273 275 273 264 257 253 247 244 242 240 236 231 227 218 216 224 228 227 227 232 233 231 232 229 228 228 216 208 206 197 185 183 188 183 169 158 154 150 148 175 208 183 90 64 79 73 49 29 5 334 330 351 356 355 360 4 1 351 357 358 343 340 258 251 234 229 241 228 216 217
295 293 288 284 284 285 291 297 304 310 312 314 311 307 300 293 288 281 276 271 270 269 264 259 253 246 242 241 240 237 230 221 216 225 230 216 217 225 225 226 232 232 229 227 219 214 209 200 189 184 188 186 169 161 160 157 160 174 180 143 87 56 55 58 42 28 14 344 333 345 348 345 350 359 360 349 358 19 30 253 276 245 209 216 230 234 244 254
302 302 299 295 289 285 285 286 290 294 298 303 306 310 307 306 301 294 287 279 273 268 266 263 258 252 244 240 239 239 235 227 221 228 226 204 215 222 221 222 227 231 229 225 221 218 214 206 194 188 187 185 173 167 163 162 176 182 156 127 91 65 43 32 25 16 8 347 336 341 349 344 347 0 2 359 19 41 177 223 290 248 228 227 235 235 242 257
300 302 303 302 299 295 291 289 289 289 291 293 295 298 301 306 307 307 304 295 286 275 271 265 261 256 248 241 238 238 238 234 227 227 224 207 213 221 223 223 224 227 227 225 224 222 220 211 200 196 189 186 183 174 166 166 185 197 155 126 98 70 41 27 11 353 348 347 343 348 351 340 339 356 1 6 26 56 204 71 41 307 288 268 254 249 245 250
297 299 298 297 297 296 294 293 292 291 291 292 292 293 294 297 299 304 307 306 304 293 283 274 266 258 251 246 240 236 236 238 231 226 225 212 213 221 225 227 226 224 223 224 224 225 225 216 209 206 196 191 188 180 178 172 186 214 206 155 102 66 35 24 4 344 337 343 347 350 345 338 337 349 3 15 29 192 129 69 49 349 332 330 305 296 255 235
291 292 292 290 290 289 288 289 289 290 290 291 292 292 292 293 294 295 298 302 305 303 301 292 281 266 255 247 242 237 235 237 234 228 228 220 213 221 227 230 230 224 221 222 223 226 226 220 216 213 206 198 191 185 189 184 189 225 231 199 102 62 26 13 357 340 331 327 338 340 334 339 337 341 6 28 43 102 84 74 36 27 343 324 327 330 280 223
284 285 285 285 284 283 284 284 286 287 288 289 290 291 292 292 293 293 293 293 295 299 302 302 300 286 264 249 240 236 236 238 236 231 229 223 215 218 226 231 234 231 221 219 222 225 227 223 218 216 215 206 199 195 197 199 203 221 218 174 79 58 19 2 349 333 326 322 334 329 324 333 330 335 6 27 22 21 54 57 48 44 348 325 351 1 323 276
282 282 281 281 281 280 280 281 283 285 287 288 289 290 291 292 293 292 292 291 290 292 294 300 302 296 282 262 246 237 240 241 236 232 228 224 220 216 221 228 233 234 226 221 220 221 224 221 215 218 220 214 208 207 210 211 204 205 195 136 79 63 6 341 334 323 320 319 324 319 319 326 323 330 360 19 10 11 29 39 53 41 346 332 7 24 345 337
279 280 280 280 279 279 279 279 281 282 284 286 286 287 288 290 291 291 291 290 289 288 290 292 293 294 286 273 265 249 240 236 232 233 230 225 224 220 220 225 230 232 229 226 221 221 223 219 216 217 217 216 213 213 217 217 205 199 184 153 130 119 144 282 307 314 309 313 317 314 319 320 316 321 347 11 360 356 7 18 43 39 340 323 358 40 4 344
278 278 278 278 277 277 277 278 279 280 281 282 283 284 285 286 286 287 288 289 289 287 287 288 287 289 283 275 278 268 244 239 233 234 233 228 226 224 221 223 227 231 231 231 229 225 223 220 219 215 213 216 216 217 216 208 210 216 211 190 165 141 154 217 260 294 296 309 317 313 320 318 315 317 340 5 353 345 353 2 20 21 340 316 338 41 19 342
277 276 276 275 275 275 275 276 277 277 278 279 279 281 282 282 282 282 283 283 285 285 286 285 283 283 281 279 280 275 265 253 240 237 239 235 231 227 223 223 225 230 232 233 233 227 219 217 218 216 214 217 220 220 213 202 212 229 238 217 176 147 152 197 225 259 282 305 310 304 312 314 314 318 339 0 352 339 343 351 2 1 336 308 314 352 25 349
276 276 275 274 273 272 273 273 274 275 276 276 276 277 277 278 279 279 279 278 280 281 282 282 281 279 277 279 281 275 273 260 246 244 244 242 239 234 227 223 224 228 232 233 232 227 221 217 219 219 215 217 221 221 214 206 215 233 234 200 170 165 167 191 218 246 269 290 292 289 300 304 304 313 344 359 349 337 336 344 347 344 329 301 297 298 84 357
276 274 273 273 272 270 271 270 270 271 272 272 272 273 273 272 273 276 276 275 276 275 274 277 279 278 276 276 276 271 273 254 246 249 249 249 245 241 233 226 225 227 230 233 232 229 224 223 224 222 216 217 220 223 220 214 216 227 224 200 180 178 176 183 209 238 254 270 279 279 291 297 296 304 335 349 339 332 330 337 335 332 325 302 296 271 167 23
277 275 273 272 271 269 268 268 268 268 269 270 270 271 271 269 270 272 273 274 274 270 267 269 276 282 280 276 269 266 271 250 240 246 253 256 247 241 238 231 227 227 229 231 233 231 227 228 228 224 219 216 217 220 221 220 218 218 219 213 196 178 172 180 202 228 245 262 275 280 287 290 287 295 315 313 311 318 321 326 324 323 316 300 295 269 166 103
279 277 276 275 274 273 271 270 270 269 269 269 270 270 270 270 271 271 271 270 268 267 266 267 273 277 275 275 272 263 266 260 251 246 243 251 251 239 235 234 230 227 229 231 232 233 231 231 231 228 225 217 216 217 218 221 219 215 218 217 206 181 173 185 202 217 239 258 271 279 281 282 281 289 306 306 300 298 307 316 314 314 306 295 288 263 178 122
279 279 279 279 279 279 277 275 273 273 272 271 270 270 270 271 272 270 268 265 264 264 264 264 264 261 265 272 276 264 261 261 256 250 240 243 251 247 237 237 234 229 230 232 234 234 234 235 234 232 229 222 219 217 216 219 218 218 219 217 209 184 176 187 211 221 230 248 264 275 277 277 280 289 296 297 296 287 289 299 300 304 294 285 279 259 212 153
277 278 278 278 278 279 279 278 276 275 274 273 271 271 271 270 269 268 266 265 265 263 261 260 257 255 258 265 272 267 257 257 257 251 241 237 244 249 243 239 238 233 230 232 235 235 236 236 235 232 230 228 225 219 218 218 219 218 219 219 209 188 179 178 200 228 234 245 263 280 286 284 284 287 287 283 280 292 290 275 283 295 290 279 273 256 226 189
276 276 277 277 276 276 277 277 275 274 274 274 271 271 273 271 267 267 267 267 266 262 260 257 254 253 256 260 264 265 259 257 259 254 246 239 239 242 241 237 238 237 234 234 236 237 238 237 235 233 231 231 228 227 227 224 222 219 218 218 208 197 186 173 184 219 236 252 268 283 293 293 291 288 284 278 276 288 280 262 270 282 286 278 271 257 232 210
274 274 275 275 274 273 273 274 273 272 272 273 271 270 271 272 269 267 268 269 267 262 258 256 255 251 253 256 255 257 261 258 257 258 256 248 243 243 242 240 239 241 241 240 239 239 241 240 237 236 236 237 234 235 237 227 222 219 214 213 213 212 196 177 181 210 235 254 266 279 291 294 294 291 287 281 276 273 261 253 256 266 278 272 267 256 236 221
274 274 273 273 272 271 269 269 270 269 269 270 272 270 268 269 268 266 264 263 264 263 260 256 252 248 251 255 254 253 256 256 254 257 258 254 251 249 246 245 241 242 246 245 244 242 243 244 242 241 241 242 240 238 232 219 218 218 212 212 219 221 203 183 181 212 242 255 259 273 286 290 294 293 289 282 273 263 252 252 244 246 266 264 254 247 236 222
273 273 273 273 272 270 268 267 266 266 266 267 269 270 269 266 262 261 258 257 261 262 261 257 250 245 248 251 252 251 251 252 254 256 257 256 255 251 246 247 245 242 242 241 241 242 244 248 246 240 238 238 237 235 226 213 215 219 217 214 215 217 207 189 179 203 241 254 257 270 278 286 295 292 286 282 275 261 238 241 242 235 249 258 250 238 233 226
272 271 272 273 273 271 270 268 266 264 263 263 265 267 267 265 260 257 253 253 259 259 256 256 252 239 241 251 255 253 252 253 253 254 256 257 257 255 248 245 243 238 235 236 241 245 249 254 248 237 233 233 231 231 226 212 211 216 218 217 212 211 206 189 178 189 228 247 254 264 273 285 295 289 282 283 284 275 249 239 242 234 239 249 250 238 228 223
272 270 269 270 271 272 270 269 268 266 264 263 264 263 263 262 260 259 256 248 251 257 253 249 248 240 239 250 254 252 248 245 248 250 251 252 254 255 251 247 243 239 239 242 247 250 252 257 249 238 233 232 230 229 227 217 212 212 215 217 213 211 208 192 179 185 210 234 248 263 274 282 286 281 278 286 291 284 272 259 244 232 231 239 246 243 228 216
273 271 269 268 268 269 269 269 268 267 265 265 265 263 261 260 259 259 258 251 241 250 255 247 240 239 240 242 248 259 258 247 250 251 249 250 249 251 254 252 247 243 244 245 245 245 244 239 238 237 233 231 229 229 228 224 218 212 213 215 210 210 213 196 184 190 206 228 244 256 265 270 275 276 279 289 292 284 277 267 245 225 224 232 244 249 236 217
273 272 270 268 266 267 267 267 266 266 265 265 265 263 261 261 259 257 257 255 241 239 254 252 240 234 240 247 254 264 262 252 252 249 245 246 247 249 251 251 249 247 244 244 244 243 236 229 232 236 234 230 229 228 230 229 223 215 215 217 204 201 209 197 188 195 204 222 237 242 248 258 267 273 278 286 288 283 279 271 253 232 223 223 228 240 239 226
274 273 271 269 267 266 266 266 265 265 264 264 264 263 262 260 260 259 258 257 247 238 247 254 251 243 242 250 254 255 254 250 245 243 240 242 245 248 250 250 249 247 245 245 245 242 235 231 232 236 236 233 230 229 229 228 226 222 221 222 205 197 206 199 189 194 197 209 236 247 247 254 263 267 275 282 282 278 275 272 262 242 227 220 214 223 230 225
274 273 272 270 268 266 265 266 266 265 263 263 262 261 261 260 259 261 261 259 253 244 244 249 253 252 247 249 250 252 253 247 243 243 241 242 242 244 249 251 247 243 245 247 246 243 237 234 233 236 239 238 236 233 228 226 228 224 219 221 210 199 205 202 192 194 194 196 220 244 251 253 259 263 270 278 277 269 268 273 271 260 248 233 218 214 221 223
272 271 271 270 269 267 265 265 267 267 264 263 261 260 259 259 259 260 261 261 256 251 248 248 251 253 252 250 251 252 248 242 244 244 238 238 239 241 246 251 248 240 242 247 246 238 236 235 232 234 238 241 242 238 230 228 229 220 210 217 211 201 203 201 198 199 200 204 210 224 240 247 252 259 266 273 272 263 265 277 279 277 269 250 233 218 217 223
273 271 269 268 268 268 265 264 265 266 266 264 262 260 259 258 258 258 258 258 257 255 253 251 252 253 253 250 248 248 245 241 244 245 241 240 241 244 246 247 247 240 240 246 243 234 235 236 231 232 233 235 239 239 234 234 231 214 207 214 207 201 202 199 201 203 207 217 214 214 230 241 248 255 259 262 262 260 267 277 280 278 268 251 242 229 218 219
277 275 272 270 270 270 269 265 262 263 264 264 262 260 259 258 257 256 255 255 257 256 255 253 252 252 251 249 246 244 244 242 243 244 243 242 240 242 242 240 242 242 243 248 244 235 234 235 234 236 236 231 230 232 232 235 230 214 209 213 204 201 201 200 204 205 210 219 216 212 223 238 245 248 251 252 252 258 264 268 277 277 266 252 245 239 225 216
279 278 276 274 272 272 271 268 264 261 261 262 261 259 258 257 255 255 255 257 257 256 255 253 251 248 247 247 245 243 242 241 242 244 244 243 240 240 240 238 241 244 247 251 252 243 238 239 241 242 240 232 226 226 227 230 226 215 211 213 208 203 201 202 205 208 213 218 216 212 219 234 241 240 244 249 250 252 254 261 273 275 267 257 250 244 231 216
278 277 276 275 274 272 271 270 268 264 261 260 260 259 257 255 254 255 257 258 256 255 254 252 249 247 245 244 243 243 243 242 243 245 246 245 244 242 242 244 245 248 250 256 259 250 244 245 245 243 239 235 232 229 226 228 226 217 212 213 212 206 203 206 208 212 217 220 219 215 216 231 241 240 240 245 249 252 256 265 271 270 266 260 252 246 235 223
275 274 273 273 272 271 269 268 268 267 264 261 259 259 257 255 255 256 256 254 252 253 254 252 249 247 246 244 243 243 243 244 244 245 246 247 246 243 242 243 243 243 245 248 247 242 239 238 238 238 237 235 236 233 230 230 232 227 219 217 217 213 210 212 214 217 221 223 222 217 217 229 239 242 242 243 247 253 260 267 268 267 265 259 254 247 239 231
272 271 270 270 269 269 268 266 266 265 264 261 259 258 257 257 258 257 254 251 250 250 251 251 250 248 246 245 245 245 244 245 245 246 246 247 247 244 242 242 242 242 242 242 242 240 239 237 237 240 241 240 240 240 236 234 236 236 226 221 223 223 222 222 221 222 224 224 223 220 222 228 235 241 245 245 248 254 262 264 260 261 263 259 255 249 240 234
272 271 270 269 267 267 266 265 264 263 262 260 258 257 258 259 259 258 255 251 247 246 248 249 249 247 246 246 246 246 246 246 246 246 246 247 247 246 245 244 244 244 244 244 245 245 246 244 239 240 241 239 239 239 237 234 234 234 227 223 228 229 227 226 223 222 224 224 223 223 226 231 236 242 245 245 249 257 264 263 255 255 259 261 258 249 241 239
273 272 271 270 268 267 266 265 263 261 260 258 257 257 258 258 257 256 254 251 248 246 245 246 247 247 246 246 246 246 246 245 244 244 246 247 247 246 245 243 242 243 243 244 245 247 248 246 239 239 240 237 236 233 232 234 234 234 232 232 236 233 227 226 224 222 222 224 227 228 229 233 237 242 244 242 244 250 256 259 257 253 255 260 260 253 247 247
275 274 273 271 269 268 266 264 263 262 260 258 257 257 257 255 253 252 251 250 249 246 243 241 243 244 245 244 244 244 244 242 241 241 242 245 245 244 244 243 241 240 240 241 242 242 244 243 233 233 239 239 237 233 230 232 231 232 236 238 239 232 227 227 227 224 222 225 231 233 232 234 235 239 244 242 241 245 250 256 259 253 250 254 261 260 253 251
276 276 275 272 270 268 266 265 264 262 260 258 257 256 254 252 250 248 248 247 245 245 243 240 238 239 241 243 243 243 243 242 239 237 236 239 243 243 243 243 241 239 238 239 240 239 240 241 234 228 232 236 236 233 229 229 228 229 234 237 235 233 231 229 228 227 225 227 232 235 234 234 234 236 241 244 243 244 245 253 260 254 248 250 260 266 258 250
278 278 276 273 271 269 267 266 264 261 260 259 258 255 253 250 247 244 243 243 242 242 242 240 236 234 235 238 240 240 241 241 240 238 235 234 236 239 241 242 242 239 236 235 238 239 239 240 237 229 226 228 231 232 230 229 226 224 225 229 230 233 236 235 236 235 231 230 234 237 237 236 235 234 237 242 244 240 236 246 257 257 252 251 258 275 273 258
281 280 278 274 272 270 269 267 263 261 260 259 257 254 250 247 244 242 240 239 239 239 239 239 237 233 231 231 234 236 238 239 239 240 239 237 234 233 234 238 240 239 237 235 234 235 237 238 237 231 225 225 229 233 235 233 230 225 223 226 228 231 232 234 239 240 236 234 237 239 240 240 238 233 232 237 239 235 233 242 251 254 258 262 268 277 277 270
284 282 279 277 275 272 269 265 262 260 259 257 254 251 248 246 243 240 238 237 236 236 236 236 236 235 230 227 227 228 231 235 236 237 239 240 237 233 229 231 237 238 237 235 231 229 232 236 236 232 228 229 230 233 236 237 236 233 229 229 234 235 235 236 239 239 235 234 236 240 244 245 241 233 230 232 234 234 238 244 248 252 256 263 268 264 265 271
286 285 282 279 278 274 268 263 261 259 256 254 251 248 246 244 242 240 237 235 234 233 232 233 233 233 231 226 222 220 222 228 232 233 235 237 237 236 229 224 231 238 238 235 233 231 232 235 236 232 230 232 232 231 233 235 237 236 230 227 232 238 239 239 241 241 239 238 237 238 244 246 240 231 227 228 229 235 242 241 241 246 249 255 260 257 258 266
289 287 284 281 279 275 269 262 257 254 251 250 247 244 242 241 239 238 236 233 232 231 230 229 230 230 229 226 219 215 215 220 226 230 231 232 233 234 230 222 220 228 235 236 235 231 228 230 234 232 229 230 232 231 231 230 228 231 231 224 222 231 237 240 244 246 247 247 242 236 241 247 242 231 225 223 225 232 237 236 236 240 244 248 254 258 259 261
291 289 286 282 279 275 269 260 252 249 248 246 242 239 239 237 236 235 234 232 230 230 229 227 227 227 227 225 219 213 211 214 219 224 226 227 227 228 227 225 222 220 223 230 235 234 229 227 229 230 226 222 223 226 229 228 226 229 233 227 220 224 231 236 240 242 244 247 244 239 243 249 247 236 227 221 218 222 228 233 237 238 239 243 247 251 255 257
295 292 288 283 279 274 266 257 250 247 245 243 240 238 236 235 233 231 231 230 229 228 228 226 226 225 225 224 221 215 211 211 213 217 221 223 223 222 222 225 226 224 219 218 225 234 235 229 226 228 228 223 222 226 230 232 231 232 232 228 221 218 223 230 234 237 241 243 242 243 247 249 247 240 233 225 216 216 222 228 234 237 235 239 245 246 249 255
299 295 289 283 279 274 264 254 249 245 242 240 239 238 236 233 232 231 229 229 228 227 227 226 225 225 224 223 222 217 211 209 211 213 215 218 220 220 221 223 224 224 220 215 215 222 231 231 226 226 230 230 228 229 232 233 233 235 236 232 224 217 220 228 231 235 241 242 244 247 247 247 246 244 242 231 215 213 220 224 229 236 235 232 234 235 243 256
304 299 292 282 277 273 263 254 247 243 241 239 237 236 236 234 233 232 231 231 229 229 229 227 226 226 224 222 222 218 213 209 209 210 211 214 216 216 217 219 219 218 216 213 212 215 222 227 226 223 225 229 228 226 228 232 234 237 240 240 233 223 220 226 233 237 239 240 244 247 244 245 249 247 249 241 216 211 220 226 228 232 233 230 229 230 241 255
306 302 296 288 278 269 260 253 247 240 239 240 239 237 236 236 236 235 234 233 231 230 230 229 229 229 226 222 221 220 216 211 209 209 209 209 212 213 213 214 215 212 210 208 209 213 219 223 225 224 222 222 223 221 219 225 232 235 237 239 239 233 225 226 233 237 238 239 244 246 242 245 246 238 241 247 223 213 221 230 232 231 233 237 238 239 244 253
306 301 297 293 283 263 251 248 246 241 235 235 238 239 238 237 237 237 237 236 233 232 232 230 229 230 227 223 221 220 218 213 209 208 207 206 206 206 206 209 211 209 206 205 206 210 218 224 224 225 225 221 219 217 213 214 222 229 233 234 235 234 232 231 233 236 238 241 244 243 240 241 238 223 219 231 224 212 217 228 235 234 237 244 246 246 249 257
305 300 295 292 283 265 250 244 243 242 236 232 233 236 238 237 237 238 239 239 237 236 237 236 233 231 228 225 222 220 218 215 210 207 205 204 202 200 199 202 205 205 205 204 205 209 217 223 223 222 226 225 218 215 213 210 213 221 228 230 229 229 233 236 234 234 235 237 238 239 238 238 235 224 211 209 209 207 212 223 233 235 237 241 243 244 247 254
304 300 297 292 281 269 262 254 247 242 238 236 234 234 236 237 238 238 237 238 238 237 238 240 238 235 231 228 225 221 217 215 211 206 204 203 201 198 197 198 200 202 203 203 205 209 213 219 222 220 222 226 222 215 214 210 207 213 221 223 223 225 229 234 234 232 235 236 235 236 237 236 234 229 220 211 207 204 206 216 228 234 236 240 243 244 246 250
305 301 300 295 282 272 269 266 261 249 239 238 236 235 238 239 239 239 236 233 236 237 238 242 243 240 236 233 230 225 220 216 211 205 203 202 200 198 196 195 197 200 201 202 204 208 211 214 219 219 218 223 225 219 216 212 206 210 216 215 218 223 224 226 232 236 241 242 237 236 237 236 234 232 226 215 207 204 203 209 221 230 235 239 239 236 239 243
Height
5903 5902 5902 5901 5901 5900 5899 5899 5898 5897 5897 5896 5896 5895 5895 5895 5894 5894 5894 5893 5893 5893 5893 5893 5894 5894 5895 5895 5896 5897 5897 5898 5898 5898 5897 5897 5898 5898 5899 5900 5900 5901 5901 5902 5904 5905 5905 5906 5907 5907 5907 5908 5909 5909 5908 5909 5911 5912 5912 5912 5910 5910 5910 5911 5912 5912 5911 5911 5910 5909 5907 5906 5907 5909 5911 5911 5912 5912 5911 5911 5912 5912 5913 5914 5914 5915 5916 5916
5901 5901 5900 5900 5900 5899 5899 5898 5897 5897 5896 5895 5895 5894 5894 5894 5893 5893 5893 5893 5892 5892 5892 5892 5892 5893 5893 5894 5894 5895 5896 5896 5897 5896 5895 5897 5897 5897 5898 5898 5899 5900 5901 5902 5903 5903 5904 5905 5906 5906 5907 5907 5908 5908 5908 5910 5912 5912 5911 5911 5910 5910 5910 5911 5913 5912 5911 5911 5910 5910 5908 5908 5908 5910 5911 5911 5912 5912 5912 5910 5910 5911 5912 5913 5914 5914 5915 5916
5901 5900 5899 5899 5898 5898 5898 5897 5897 5896 5896 5895 5894 5894 5893 5893 5892 5892 5892 5892 5891 5891 5891 5891 5891 5891 5891 5892 5892 5893 5894 5895 5895 5894 5895 5896 5895 5895 5896 5896 5897 5898 5899 5900 5901 5902 5902 5903 5905 5905 5906 5907 5907 5908 5909 5910 5912 5911 5910 5910 5909 5909 5910 5911 5912 5912 5912 5911 5911 5911 5909 5908 5908 5909 5911 5911 5912 5912 5911 5910 5910 5911 5911 5912 5913 5913 5914 5915
5900 5899 5899 5898 5898 5897 5897 5896 5896 5895 5895 5894 5894 5893 5893 5892 5892 5891 5891 5891 5890 5890 5890 5890 5890 5890 5890 5890 5891 5891 5891 5892 5893 5893 5893 5894 5894 5894 5894 5895 5896 5897 5897 5898 5899 5900 5901 5902 5904 5904 5905 5906 5907 5908 5908 5909 5911 5911 5910 5908 5907 5908 5910 5911 5911 5913 5913 5911 5910 5910 5909 5908 5908 5909 5910 5911 5911 5911 5910 5910 5910 5910 5911 5911 5912 5912 5913 5914
5898 5898 5898 5897 5897 5896 5896 5895 5895 5894 5894 5893 5893 5892 5892 5892 5891 5891 5890 5890 5890 5889 5889 5889 5889 5889 5889 5889 5889 5889 5889 5889 5890 5891 5892 5892 5892 5892 5893 5894 5894 5895 5896 5896 5898 5899 5899 5901 5902 5903 5905 5905 5906 5907 5907 5908 5910 5911 5910 5907 5906 5906 5908 5910 5912 5913 5913 5912 5910 5910 5909 5908 5907 5908 5910 5911 5911 5910 5910 5910 5910 5909 5910 5911 5911 5911 5912 5912
5898 5897 5897 5896 5896 5895 5895 5894 5894 5893 5893 5892 5892 5891 5891 5890 5890 5890 5889 5889 5889 5888 5888 5888 5888 5888 5888 5888 5888 5888 5887 5886 5887 5889 5890 5891 5891 5891 5891 5892 5893 5893 5894 5895 5896 5897 5898 5900 5901 5903 5904 5905 5906 5907 5907 5907 5910 5911 5910 5907 5905 5905 5907 5910 5912 5913 5913 5912 5910 5910 5909 5908 5907 5907 5910 5911 5910 5909 5910 5910 5910 5909 5909 5910 5910 5910 5911 5912
5896 5896 5895 5895 5894 5894 5893 5893 5892 5892 5892 5891 5890 5890 5890 5889 5889 5889 5888 5888 5887 5887 5887 5887 5887 5887 5887 5887 5886 5886 5885 5885 5886 5887 5888 5888 5889 5889 5890 5890 5891 5892 5893 5894 5895 5895 5897 5898 5900 5902 5902 5904 5905 5906 5906 5906 5908 5910 5909 5906 5904 5904 5907 5909 5911 5912 5913 5912 5911 5909 5909 5908 5907 5907 5909 5910 5909 5908 5909 5910 5910 5909 5909 5910 5910 5910 5910 5911
5895 5894 5894 5894 5893 5893 5892 5892 5891 5891 5890 5890 5889 5889 5888 5888 5888 5887 5887 5887 5886 5886 5886 5886 5886 5886 5886 5885 5885 5885 5884 5884 5884 5884 5885 5886 5887 5888 5888 5888 5889 5890 5891 5892 5893 5894 5894 5896 5899 5900 5901 5903 5904 5905 5905 5905 5906 5906 5904 5903 5902 5905 5907 5909 5910 5911 5911 5912 5911 5909 5909 5908 5907 5906 5908 5909 5907 5907 5908 5909 5909 5909 5908 5909 5909 5910 5910 5910
5893 5892 5892 5892 5891 5891 5891 5890 5890 5889 5889 5888 5888 5887 5887 5887 5886 5886 5885 5885 5885 5885 5885 5885 5885 5885 5885 5884 5884 5884 5883 5883 5883 5882 5883 5884 5885 5886 5886 5887 5887 5888 5889 5890 5891 5891 5892 5895 5897 5899 5900 5901 5901 5902 5903 5904 5904 5902 5900 5900 5900 5902 5905 5908 5909 5910 5910 5910 5911 5909 5908 5908 5907 5907 5908 5908 5907 5906 5907 5908 5908 5909 5909 5908 5909 5910 5910 5910
5890 5890 5890 5889 5889 5889 5889 5888 5888 5888 5887 5887 5886 5886 5885 5885 5885 5884 5884 5884 5884 5883 5883 5883 5883 5883 5883 5883 5883 5883 5882 5882 5882 5881 5881 5882 5884 5884 5885 5885 5886 5887 5888 5888 5889 5891 5892 5894 5895 5896 5897 5897 5898 5900 5901 5903 5903 5900 5899 5898 5898 5899 5902 5905 5908 5910 5909 5909 5910 5909 5908 5907 5907 5908 5908 5908 5907 5906 5907 5907 5907 5908 5909 5908 5908 5909 5910 5910
5888 5887 5887 5887 5887 5887 5886 5886 5886 5885 5885 5885 5884 5884 5884 5883 5883 5883 5882 5882 5882 5882 5882 5882 5882 5882 5881 5881 5881 5881 5881 5881 5881 5880 5880 5880 5881 5882 5884 5884 5885 5885 5886 5887 5888 5889 5891 5891 5892 5892 5893 5895 5896 5898 5900 5901 5901 5900 5899 5899 5898 5899 5901 5903 5906 5908 5908 5909 5910 5908 5908 5906 5906 5908 5909 5909 5907 5906 5906 5906 5907 5908 5908 5908 5908 5909 5909 5910
5885 5885 5884 5884 5884 5884 5884 5884 5883 5883 5883 5882 5882 5882 5881 5881 5881 5881 5880 5880 5880 5880 5880 5880 5880 5880 5879 5879 5880 5880 5880 5880 5879 5879 5879 5879 5880 5881 5882 5883 5883 5883 5884 5885 5886 5887 5888 5889 5888 5888 5892 5894 5895 5897 5898 5899 5900 5900 5900 5898 5898 5899 5901 5901 5903 5905 5907 5909 5909 5908 5908 5906 5905 5907 5909 5909 5908 5906 5906 5906 5906 5907 5908 5909 5908 5908 5909 5909
5883 5882 5882 5882 5881 5881 5881 5881 5881 5881 5880 5880 5880 5880 5879 5879 5879 5879 5879 5878 5878 5878 5878 5878 5878 5879 5878 5877 5878 5878 5879 5879 5878 5878 5877 5877 5878 5879 5880 5881 5881 5882 5882 5883 5884 5885 5886 5886 5886 5888 5890 5892 5893 5895 5897 5897 5898 5899 5899 5898 5897 5898 5900 5902 5902 5903 5906 5908 5908 5908 5909 5907 5905 5906 5908 5909 5909 5907 5906 5906 5906 5906 5907 5908 5909 5909 5908 5909
5881 5880 5880 5879 5879 5879 5879 5878 5878 5878 5878 5878 5877 5877 5877 5877 5877 5877 5877 5877 5877 5876 5876 5877 5877 5877 5876 5875 5876 5877 5877 5878 5877 5877 5876 5876 5876 5877 5878 5879 5880 5880 5881 5881 5882 5883 5884 5883 5884 5886 5887 5889 5891 5894 5895 5896 5896 5898 5898 5897 5898 5899 5901 5902 5902 5903 5906 5906 5906 5908 5909 5907 5904 5905 5908 5909 5909 5908 5906 5906 5906 5906 5907 5908 5909 5909 5909 5909
5878 5878 5878 5877 5877 5876 5876 5876 5876 5875 5875 5875 5875 5874 5874 5874 5875 5875 5875 5874 5874 5874 5874 5875 5876 5876 5874 5872 5874 5875 5875 5875 5876 5876 5876 5875 5875 5875 5876 5876 5877 5878 5878 5879 5879 5880 5881 5881 5882 5883 5885 5887 5889 5890 5893 5894 5895 5896 5897 5898 5898 5899 5901 5902 5902 5903 5905 5906 5906 5907 5908 5907 5904 5905 5907 5907 5909 5908 5907 5907 5906 5907 5906 5907 5908 5908 5908 5908
5876 5875 5875 5874 5874 5873 5873 5873 5873 5873 5872 5871 5872 5871 5871 5872 5873 5873 5872 5872 5872 5872 5872 5873 5873 5874 5873 5871 5872 5873 5873 5872 5873 5874 5874 5874 5873 5873 5874 5874 5875 5876 5876 5877 5877 5878 5879 5879 5881 5882 5883 5885 5886 5888 5890 5891 5892 5894 5896 5898 5899 5900 5901 5902 5901 5902 5904 5905 5905 5906 5908 5906 5904 5905 5906 5906 5908 5908 5907 5907 5907 5907 5907 5907 5907 5908 5908 5908
5872 5872 5872 5871 5871 5870 5870 5870 5870 5870 5869 5868 5869 5868 5868 5869 5870 5869 5869 5869 5869 5869 5869 5870 5871 5872 5871 5869 5869 5870 5870 5870 5870 5871 5872 5872 5872 5872 5872 5873 5873 5873 5874 5874 5875 5875 5876 5878 5879 5880 5881 5883 5884 5886 5886 5887 5890 5893 5895 5898 5899 5899 5900 5901 5902 5902 5903 5905 5905 5905 5906 5905 5904 5904 5905 5906 5907 5907 5907 5907 5907 5907 5907 5906 5907 5907 5908 5908
5869 5869 5868 5868 5867 5867 5867 5867 5867 5867 5866 5865 5865 5865 5865 5866 5866 5866 5866 5867 5867 5866 5866 5867 5868 5869 5868 5868 5868 5867 5867 5868 5867 5867 5869 5869 5870 5870 5871 5871 5870 5871 5871 5872 5872 5873 5874 5875 5877 5878 5879 5880 5882 5882 5883 5886 5890 5892 5895 5897 5898 5899 5899 5899 5901 5902 5902 5904 5904 5904 5905 5904 5903 5903 5904 5905 5906 5906 5906 5907 5907 5907 5907 5906 5906 5907 5907 5908
5866 5865 5864 5864 5863 5863 5863 5863 5863 5863 5863 5861 5862 5862 5862 5863 5863 5863 5863 5864 5864 5863 5863 5864 5866 5867 5866 5865 5865 5864 5865 5865 5865 5865 5866 5867 5868 5868 5869 5869 5868 5868 5869 5869 5870 5871 5871 5872 5874 5876 5878 5879 5880 5881 5884 5888 5890 5891 5894 5896 5897 5899 5899 5898 5900 5901 5902 5903 5903 5903 5904 5903 5902 5902 5902 5903 5904 5905 5905 5906 5907 5907 5906 5906 5906 5906 5907 5907
5862 5862 5861 5860 5859 5859 5859 5859 5859 5859 5859 5858 5858 5859 5859 5860 5859 5859 5860 5860 5860 5860 5860 5861 5863 5864 5863 5862 5862 5862 5862 5862 5863 5863 5864 5864 5865 5865 5866 5866 5866 5866 5867 5868 5868 5869 5869 5869 5871 5875 5878 5879 5880 5881 5883 5887 5888 5889 5891 5893 5896 5897 5898 5898 5899 5900 5901 5902 5902 5902 5903 5902 5901 5901 5901 5902 5903 5904 5904 5905 5906 5906 5905 5905 5905 5906 5906 5907
5857 5857 5857 5856 5855 5854 5855 5855 5855 5855 5855 5855 5855 5855 5855 5856 5855 5854 5856 5857 5857 5857 5858 5858 5859 5861 5861 5858 5858 5859 5859 5860 5861 5861 5861 5861 5862 5863 5863 5863 5864 5865 5865 5866 5866 5866 5866 5866 5870 5874 5876 5877 5878 5879 5881 5883 5884 5886 5888 5890 5893 5895 5896 5896 5896 5897 5899 5900 5901 5902 5902 5901 5901 5900 5900 5900 5901 5903 5903 5904 5905 5905 5905 5905 5905 5905 5905 5906
5852 5852 5852 5852 5851 5850 5850 5850 5851 5850 5851 5851 5852 5851 5851 5851 5850 5850 5852 5854 5855 5853 5855 5855 5856 5858 5858 5855 5855 5856 5856 5858 5859 5859 5859 5858 5859 5860 5861 5861 5863 5863 5863 5863 5863 5864 5864 5866 5869 5872 5873 5874 5875 5876 5878 5880 5881 5883 5885 5887 5889 5892 5895 5894 5892 5893 5896 5899 5901 5901 5901 5901 5900 5899 5898 5898 5900 5901 5902 5902 5903 5904 5905 5905 5904 5904 5905 5905
5846 5847 5847 5847 5846 5845 5844 5845 5846 5845 5846 5847 5847 5847 5846 5846 5846 5846 5848 5851 5852 5850 5850 5852 5852 5855 5856 5853 5852 5851 5853 5855 5855 5856 5856 5856 5857 5857 5857 5859 5860 5860 5860 5861 5861 5862 5863 5865 5867 5868 5869 5871 5872 5874 5875 5876 5877 5879 5881 5883 5886 5890 5892 5892 5892 5892 5894 5898 5900 5901 5901 5900 5898 5897 5897 5897 5898 5899 5900 5901 5902 5903 5904 5904 5904 5904 5904 5904
5840 5840 5841 5842 5841 5840 5839 5839 5840 5840 5841 5842 5842 5842 5841 5841 5841 5843 5843 5845 5849 5848 5845 5847 5848 5851 5852 5848 5847 5848 5851 5853 5853 5853 5853 5853 5854 5854 5855 5856 5856 5857 5859 5859 5859 5859 5861 5863 5864 5864 5865 5867 5869 5871 5872 5873 5875 5876 5878 5880 5885 5889 5890 5891 5892 5892 5893 5895 5898 5900 5899 5897 5896 5895 5895 5896 5897 5897 5899 5900 5901 5902 5903 5903 5904 5904 5904 5904
5835 5834 5835 5836 5836 5835 5833 5833 5834 5834 5835 5836 5837 5837 5836 5836 5836 5838 5838 5839 5844 5846 5842 5841 5844 5847 5846 5844 5845 5847 5848 5850 5850 5849 5849 5850 5850 5851 5852 5852 5853 5855 5857 5857 5856 5857 5859 5860 5860 5860 5862 5864 5865 5867 5869 5871 5874 5875 5876 5878 5883 5888 5890 5890 5890 5890 5890 5891 5894 5897 5897 5895 5893 5894 5895 5895 5896 5896 5897 5898 5900 5902 5901 5902 5903 5903 5903 5903
5829 5828 5828 5829 5830 5830 5828 5826 5827 5828 5829 5830 5832 5832 5831 5831 5831 5832 5834 5832 5838 5843 5840 5837 5838 5841 5843 5842 5842 5842 5843 5847 5846 5843 5845 5847 5847 5848 5848 5848 5850 5853 5853 5853 5853 5854 5857 5858 5857 5858 5859 5860 5862 5864 5866 5869 5871 5872 5875 5878 5881 5884 5887 5888 5888 5887 5886 5887 5892 5893 5894 5894 5892 5892 5893 5894 5895 5895 5895 5896 5898 5899 5900 5901 5902 5903 5903 5903
5822 5821 5821 5821 5822 5824 5823 5821 5821 5822 5823 5824 5826 5826 5825 5826 5826 5827 5828 5826 5830 5837 5836 5834 5833 5835 5838 5838 5837 5838 5841 5843 5840 5840 5843 5844 5844 5844 5844 5845 5848 5850 5850 5849 5849 5853 5855 5854 5855 5856 5856 5857 5858 5860 5864 5866 5867 5871 5876 5877 5878 5881 5883 5885 5886 5885 5884 5885 5889 5890 5891 5892 5890 5889 5892 5892 5893 5894 5894 5894 5895 5897 5898 5900 5900 5901 5902 5903
5815 5814 5814 5814 5814 5816 5817 5816 5814 5814 5816 5817 5818 5819 5819 5820 5821 5822 5822 5820 5823 5829 5830 5830 5829 5829 5832 5833 5833 5835 5837 5838 5836 5837 5840 5839 5840 5840 5841 5843 5845 5846 5845 5843 5846 5851 5851 5851 5853 5854 5853 5854 5856 5859 5861 5862 5864 5871 5875 5874 5876 5878 5880 5883 5884 5883 5884 5883 5883 5884 5886 5887 5886 5887 5890 5890 5890 5892 5893 5894 5894 5895 5897 5899 5899 5899 5900 5901
5807 5807 5807 5806 5806 5807 5808 5810 5809 5807 5808 5810 5811 5812 5813 5814 5815 5816 5815 5813 5817 5822 5823 5824 5825 5825 5827 5828 5829 5831 5832 5833 5833 5833 5834 5835 5836 5837 5839 5840 5840 5841 5840 5840 5843 5847 5847 5850 5851 5850 5850 5852 5855 5857 5859 5859 5862 5869 5871 5870 5874 5875 5876 5879 5879 5880 5882 5878 5877 5880 5882 5882 5882 5884 5887 5886 5886 5889 5892 5893 5893 5893 5895 5896 5898 5898 5898 5900
5799 5799 5798 5798 5798 5798 5798 5801 5803 5801 5800 5802 5803 5804 5806 5807 5808 5809 5807 5807 5813 5816 5816 5819 5820 5821 5822 5823 5824 5826 5827 5828 5828 5827 5828 5830 5832 5833 5835 5836 5835 5836 5836 5836 5839 5843 5845 5847 5846 5846 5848 5850 5852 5853 5855 5856 5860 5866 5867 5867 5870 5871 5873 5875 5874 5877 5876 5870 5872 5877 5879 5879 5879 5879 5881 5882 5884 5888 5891 5891 5892 5892 5893 5894 5896 5897 5897 5898
5790 5790 5789 5789 5789 5790 5789 5790 5793 5795 5794 5794 5795 5797 5798 5799 5801 5800 5799 5803 5810 5809 5808 5811 5813 5814 5816 5817 5818 5820 5821 5822 5822 5821 5822 5824 5827 5828 5829 5831 5831 5832 5832 5833 5836 5841 5842 5841 5842 5845 5846 5847 5848 5849 5851 5852 5856 5860 5862 5863 5865 5867 5869 5869 5870 5871 5866 5863 5869 5874 5877 5876 5873 5874 5877 5879 5883 5887 5888 5889 5890 5891 5891 5892 5894 5895 5896 5896
5781 5781 5780 5779 5779 5780 5780 5780 5782 5786 5788 5788 5787 5788 5789 5790 5791 5791 5794 5801 5804 5801 5800 5803 5804 5807 5809 5809 5811 5813 5814 5816 5817 5817 5817 5819 5821 5823 5825 5827 5829 5829 5829 5832 5835 5837 5837 5838 5840 5842 5842 5844 5844 5845 5847 5849 5851 5855 5857 5858 5859 5862 5863 5862 5863 5863 5859 5861 5868 5872 5874 5870 5867 5871 5876 5878 5881 5884 5885 5887 5888 5888 5889 5890 5891 5893 5894 5894
5773 5772 5771 5769 5768 5769 5770 5772 5773 5775 5778 5780 5779 5780 5780 5780 5782 5785 5790 5794 5795 5792 5792 5794 5796 5800 5801 5802 5804 5807 5808 5810 5811 5812 5813 5814 5816 5818 5820 5822 5824 5825 5826 5829 5830 5831 5832 5834 5835 5835 5838 5840 5841 5842 5844 5845 5847 5849 5852 5852 5853 5856 5855 5855 5857 5858 5857 5861 5866 5870 5870 5865 5863 5868 5873 5876 5879 5881 5883 5885 5886 5886 5887 5888 5889 5890 5891 5892
5764 5763 5762 5760 5758 5758 5760 5762 5764 5765 5767 5769 5770 5771 5771 5772 5775 5779 5783 5785 5785 5785 5784 5786 5789 5792 5792 5795 5797 5800 5803 5805 5805 5807 5808 5808 5809 5812 5815 5817 5819 5820 5822 5823 5824 5825 5827 5829 5831 5833 5836 5838 5839 5840 5841 5843 5845 5845 5848 5850 5849 5850 5850 5851 5854 5855 5856 5860 5864 5867 5863 5858 5860 5865 5870 5875 5877 5878 5880 5882 5883 5884 5885 5886 5887 5887 5889 5890
5754 5752 5752 5749 5746 5748 5750 5751 5754 5756 5756 5758 5759 5760 5762 5765 5769 5771 5773 5775 5776 5776 5777 5778 5781 5782 5784 5788 5790 5793 5797 5798 5799 5801 5802 5802 5804 5808 5810 5813 5815 5816 5818 5819 5820 5822 5823 5825 5830 5832 5833 5835 5835 5837 5839 5839 5840 5841 5845 5845 5843 5846 5849 5850 5853 5854 5856 5858 5860 5861 5857 5856 5860 5864 5868 5873 5874 5875 5877 5879 5880 5881 5882 5884 5884 5885 5887 5888
5741 5741 5740 5735 5735 5739 5739 5739 5742 5744 5745 5747 5747 5749 5754 5758 5760 5761 5762 5764 5765 5768 5771 5771 5771 5774 5777 5780 5782 5785 5788 5791 5793 5793 5795 5797 5798 5801 5804 5807 5810 5811 5813 5815 5817 5818 5818 5823 5829 5828 5828 5830 5831 5834 5835 5834 5836 5838 5839 5839 5841 5846 5850 5849 5850 5853 5855 5854 5853 5855 5854 5856 5860 5861 5864 5869 5870 5872 5874 5875 5877 5879 5880 5882 5883 5884 5885 5886
5727 5729 5725 5721 5724 5727 5726 5727 5729 5731 5733 5734 5736 5740 5745 5747 5748 5750 5751 5753 5755 5759 5761 5762 5763 5766 5769 5771 5774 5776 5777 5780 5784 5785 5788 5790 5790 5794 5799 5801 5805 5807 5808 5811 5812 5813 5814 5817 5823 5824 5823 5826 5829 5830 5831 5830 5832 5833 5833 5836 5841 5844 5845 5845 5846 5848 5849 5847 5847 5851 5852 5853 5856 5858 5861 5864 5867 5869 5871 5873 5874 5876 5878 5879 5881 5883 5884 5884
5713 5715 5709 5706 5711 5711 5711 5715 5716 5717 5718 5720 5725 5730 5732 5734 5737 5738 5740 5742 5743 5746 5750 5752 5755 5757 5760 5762 5764 5765 5766 5769 5772 5775 5780 5782 5783 5789 5793 5794 5798 5802 5805 5806 5806 5808 5809 5811 5815 5819 5819 5822 5825 5825 5824 5824 5826 5828 5830 5835 5837 5837 5838 5839 5839 5840 5842 5841 5842 5846 5848 5849 5851 5855 5858 5861 5863 5867 5869 5870 5871 5873 5875 5877 5878 5880 5881 5882
5697 5699 5691 5690 5696 5694 5697 5702 5700 5701 5703 5706 5713 5716 5717 5721 5723 5725 5727 5728 5731 5734 5738 5741 5743 5746 5749 5752 5754 5754 5756 5759 5761 5764 5769 5773 5777 5783 5787 5788 5791 5795 5799 5801 5801 5803 5805 5805 5808 5813 5816 5818 5818 5816 5816 5818 5822 5825 5827 5829 5830 5831 5834 5835 5835 5835 5838 5839 5839 5842 5843 5843 5846 5852 5856 5858 5860 5864 5867 5867 5868 5870 5872 5874 5876 5877 5878 5879
5680 5682 5672 5673 5680 5681 5683 5686 5683 5685 5688 5692 5698 5700 5701 5705 5708 5711 5713 5715 5719 5722 5725 5728 5731 5735 5738 5741 5744 5745 5745 5749 5751 5754 5759 5764 5770 5776 5780 5782 5784 5788 5792 5795 5796 5798 5799 5798 5801 5808 5810 5810 5809 5808 5811 5815 5818 5820 5822 5822 5824 5826 5828 5831 5831 5831 5833 5835 5836 5837 5837 5838 5844 5849 5853 5855 5858 5861 5863 5865 5866 5867 5869 5871 5873 5875 5876 5876
5661 5662 5653 5654 5665 5667 5666 5667 5666 5669 5672 5677 5681 5682 5685 5689 5692 5696 5699 5701 5705 5709 5712 5715 5720 5725 5727 5730 5735 5735 5735 5739 5742 5745 5750 5756 5761 5767 5773 5776 5778 5781 5784 5787 5789 5791 5791 5792 5796 5801 5802 5801 5803 5807 5810 5812 5814 5817 5819 5820 5821 5823 5824 5825 5825 5826 5828 5830 5833 5834 5832 5834 5841 5847 5850 5853 5855 5858 5860 5861 5862 5864 5866 5868 5870 5873 5873 5874
5641 5641 5634 5636 5647 5649 5647 5648 5650 5652 5654 5660 5665 5665 5669 5674 5677 5681 5685 5687 5691 5694 5697 5702 5707 5712 5714 5719 5725 5726 5725 5728 5732 5736 5742 5747 5752 5758 5764 5768 5772 5775 5776 5778 5782 5786 5788 5788 5789 5792 5795 5797 5801 5805 5806 5808 5810 5812 5814 5817 5819 5819 5819 5820 5821 5823 5825 5826 5829 5831 5829 5830 5837 5843 5847 5850 5853 5856 5857 5858 5859 5861 5863 5866 5868 5870 5871 5871
5621 5621 5616 5618 5627 5629 5628 5631 5632 5632 5636 5643 5647 5648 5652 5657 5660 5665 5670 5673 5675 5678 5682 5688 5692 5695 5699 5706 5712 5714 5716 5719 5722 5727 5733 5738 5744 5750 5753 5755 5760 5765 5768 5771 5774 5779 5781 5781 5781 5785 5791 5794 5796 5798 5799 5801 5804 5804 5806 5810 5813 5813 5814 5817 5819 5821 5823 5822 5824 5826 5825 5826 5833 5839 5843 5847 5850 5853 5854 5855 5857 5858 5861 5863 5865 5866 5867 5868
5605 5604 5600 5601 5607 5611 5611 5612 5613 5614 5618 5625 5627 5628 5634 5640 5644 5648 5652 5654 5658 5662 5667 5673 5676 5678 5683 5688 5694 5701 5706 5709 5713 5719 5723 5728 5734 5739 5741 5743 5747 5753 5758 5763 5768 5771 5772 5773 5775 5777 5781 5784 5786 5787 5788 5791 5794 5796 5799 5804 5808 5810 5812 5813 5815 5817 5817 5817 5819 5820 5819 5823 5830 5836 5840 5843 5846 5849 5851 5852 5853 5855 5857 5859 5861 5863 5863 5865
5590 5590 5587 5585 5589 5595 5595 5593 5595 5599 5602 5606 5609 5612 5618 5622 5625 5629 5631 5634 5641 5646 5651 5657 5660 5662 5666 5670 5678 5689 5693 5695 5702 5707 5709 5716 5723 5727 5730 5734 5740 5744 5746 5752 5759 5763 5764 5765 5767 5767 5769 5772 5774 5776 5780 5784 5788 5791 5794 5798 5802 5806 5808 5808 5810 5811 5810 5813 5816 5814 5815 5822 5828 5831 5834 5838 5842 5845 5847 5848 5849 5851 5853 5855 5857 5859 5859 5860
5578 5579 5579 5575 5575 5580 5581 5578 5581 5586 5588 5590 5595 5600 5604 5607 5609 5612 5615 5619 5626 5630 5633 5639 5643 5647 5652 5657 5666 5675 5676 5680 5690 5694 5696 5706 5714 5719 5723 5727 5732 5735 5737 5740 5744 5749 5753 5756 5758 5759 5762 5767 5772 5776 5780 5783 5785 5787 5790 5793 5797 5802 5804 5804 5805 5804 5805 5811 5812 5810 5813 5820 5824 5826 5829 5834 5838 5841 5843 5845 5846 5847 5848 5851 5853 5855 5856 5857
5571 5570 5571 5570 5569 5570 5570 5568 5570 5574 5575 5578 5583 5588 5591 5594 5597 5601 5605 5608 5614 5618 5620 5626 5630 5632 5637 5644 5652 5659 5662 5669 5679 5683 5688 5698 5705 5710 5716 5720 5724 5727 5731 5734 5734 5738 5742 5744 5748 5753 5757 5763 5771 5777 5781 5781 5782 5784 5787 5789 5792 5798 5801 5800 5799 5800 5804 5807 5808 5810 5814 5816 5819 5823 5826 5829 5834 5837 5839 5841 5842 5844 5845 5847 5849 5851 5852 5853
5567 5565 5564 5565 5565 5565 5563 5562 5563 5565 5567 5569 5573 5577 5581 5583 5586 5590 5594 5596 5602 5607 5609 5615 5618 5616 5621 5632 5640 5645 5652 5661 5669 5672 5679 5690 5697 5702 5709 5713 5715 5718 5723 5728 5730 5732 5732 5734 5741 5748 5752 5758 5764 5770 5775 5777 5778 5780 5782 5785 5788 5792 5795 5796 5796 5799 5802 5802 5804 5810 5813 5812 5816 5821 5823 5826 5830 5834 5836 5838 5839 5841 5842 5843 5845 5847 5849 5850
5564 5563 5561 5561 5562 5561 5560 5559 5559 5560 5563 5564 5566 5569 5572 5574 5578 5581 5583 5586 5593 5597 5598 5601 5603 5601 5608 5621 5629 5635 5643 5651 5657 5662 5671 5682 5689 5695 5702 5706 5708 5712 5716 5720 5724 5725 5725 5729 5736 5740 5745 5752 5757 5762 5768 5771 5773 5775 5777 5780 5783 5786 5789 5792 5795 5797 5798 5799 5803 5808 5809 5809 5813 5818 5820 5824 5827 5830 5832 5834 5835 5837 5838 5840 5842 5844 5846 5847
5561 5560 5559 5558 5558 5558 5557 5557 5556 5557 5559 5560 5561 5564 5565 5568 5571 5574 5576 5579 5585 5590 5590 5590 5591 5592 5599 5609 5615 5622 5631 5639 5646 5654 5662 5672 5680 5686 5692 5697 5702 5707 5711 5715 5718 5717 5719 5725 5731 5734 5739 5744 5750 5756 5760 5764 5767 5770 5772 5775 5778 5781 5783 5786 5790 5793 5794 5796 5800 5803 5804 5805 5810 5814 5817 5820 5823 5825 5828 5829 5831 5832 5834 5836 5837 5839 5842 5844
5559 5558 5557 5557 5556 5555 5555 5555 5554 5555 5557 5557 5557 5560 5562 5563 5565 5567 5571 5574 5578 5582 5583 5582 5584 5588 5593 5598 5602 5611 5619 5625 5635 5645 5652 5661 5670 5676 5682 5689 5695 5700 5704 5709 5712 5712 5715 5721 5726 5730 5732 5736 5742 5749 5753 5758 5763 5765 5765 5769 5772 5775 5778 5781 5784 5788 5791 5793 5796 5797 5798 5801 5807 5811 5813 5815 5817 5820 5823 5825 5827 5829 5830 5832 5833 5835 5839 5841
5557 5555 5555 5555 5554 5553 5553 5553 5552 5553 5554 5553 5555 5557 5559 5560 5560 5562 5565 5569 5572 5575 5577 5576 5578 5583 5589 5593 5597 5601 5606 5612 5622 5634 5642 5651 5660 5667 5674 5681 5686 5692 5697 5702 5705 5707 5711 5716 5722 5724 5726 5730 5736 5743 5748 5754 5756 5753 5755 5762 5767 5769 5773 5777 5781 5784 5787 5790 5791 5792 5794 5799 5805 5807 5808 5811 5814 5816 5819 5822 5825 5826 5828 5829 5831 5833 5835 5837